15min,AgWx,beryljct,423,21JAN2021:00:00:00,23.5,12.79,19.0,18.7,19.8,21.1,18.7,84,86,82,0.295,15.9,17.4,14.6,4.735,3.7,170,10,6.0,-0.00005,-0.00006,33.2,34.4,8,0,0,.,6.21,0.00,0.00
15min,AgWx,beryljct,423,21JAN2021:00:15:00,23.0,12.78,19.2,19.2,18.9,19.4,18.3,86,87,84,0.310,15.3,16.2,14.4,3.025,3.5,179,10,5.5,-0.00006,-0.00006,33.1,34.4,8,0,0,.,6.21,0.00,0.00
15min,AgWx,beryljct,423,21JAN2021:00:30:00,22.5,12.76,20.5,19.8,18.9,20.1,18.0,86,88,85,0.319,15.5,16.9,14.1,0.066,2.3,170,12,3.7,-0.00008,-0.00010,33.0,34.4,9,0,0,.,6.21,0.00,0.00
15min,AgWx,beryljct,423,21JAN2021:00:45:00,22.1,12.75,16.7,16.4,18.1,20.0,16.4,86,88,84,0.270,14.4,16.7,12.7,5.765,3.0,282,66,5.9,-0.00007,-0.00008,32.9,34.4,8,0,0,.,6.21,0.00,0.00
15min,AgWx,beryljct,423,21JAN2021:01:00:00,21.5,12.75,20.2,19.2,17.5,19.2,16.3,87,89,85,0.320,14.3,16.6,12.5,4.56,4.9,311,5.4,6.4,-0.00004,-0.00004,32.8,34.4,9,0,0,.,6.21,0.00,0.00
15min,AgWx,beryljct,423,21JAN2021:01:15:00,21.5,12.74,21.8,21.3,20.8,22.1,19.3,89,90,87,0.340,18.0,19.4,16.6,3.946,4.4,322,10,5.3,-0.00005,-0.00006,32.7,34.3,9,0,0,.,6.21,0.00,0.00
15min,AgWx,beryljct,423,21JAN2021:01:30:00,21.5,12.74,16.2,16.0,18.7,22.1,15.9,86,89,83,0.269,15.2,19.2,12.5,2.696,2.9,38,37,4.8,-0.00007,-0.00008,32.6,34.3,8,0,0,.,6.21,0.00,0.00
15min,AgWx,beryljct,423,21JAN2021:01:45:00,21.0,12.73,17.4,16.7,16.4,16.7,16.0,87,88,86,0.285,13.3,13.9,12.6,0.592,0.6,92,0.1,2.6,-0.00013,-0.00019,32.5,34.3,9,0,0,.,6.21,0.00,0.00
15min,AgWx,beryljct,423,21JAN2021:02:00:00,20.5,12.72,19.1,18.5,17.7,18.5,16.8,89,90,88,0.311,15.1,15.9,14.0,0.088,0.3,92,0.1,0.7,-0.00015,-0.00023,32.4,34.3,9,0,0,.,6.21,0.00,0.00
15min,AgWx,beryljct,423,21JAN2021:02:15:00,20.0,12.71,18.8,18.0,17.9,18.7,16.8,89,91,87,0.307,15.1,16.0,13.6,2.762,0.4,102,23,2.8,-0.00015,-0.00023,32.3,34.2,8,0,0,.,6.21,0.00,0.00
15min,AgWx,beryljct,423,21JAN2021:02:30:00,20.0,12.7,18.6,19.5,19.4,20.1,18.1,91,92,90,0.332,17.2,18.1,15.7,3.793,2.6,204,9.0,3.8,-0.00009,-0.00010,32.1,34.2,9,0,0,.,6.21,0.00,0.00
15min,AgWx,beryljct,423,21JAN2021:02:45:00,19.9,12.7,18.7,18.4,18.2,19.4,17.6,90,91,89,0.312,15.8,17.3,15.0,1.71,2.6,196,10,3.9,-0.00008,-0.00010,32.0,34.2,8,0,0,.,6.22,0.00,0.00
15min,AgWx,beryljct,423,21JAN2021:03:00:00,19.8,12.69,20.3,20.1,19.2,20.2,18.4,91,93,90,0.343,17.1,18.3,15.9,1.71,0.6,191,1.8,1.7,-0.00015,-0.00022,32.0,34.2,8,0,0,.,6.21,0.00,0.00
15min,AgWx,beryljct,423,21JAN2021:03:15:00,19.7,12.67,18.1,17.6,19.2,20.1,17.5,92,93,90,0.301,17.1,18.2,15.1,1.885,1.8,192,18,3.4,-0.00011,-0.00013,31.8,34.1,8,0,0,.,6.21,0.00,0.00
15min,AgWx,beryljct,423,21JAN2021:03:30:00,19.5,12.67,18.6,18.1,17.9,19.0,17.2,92,93,90,0.316,15.9,17.3,15.0,1.293,1.0,235,13,2.3,-0.00013,-0.00017,31.7,34.1,8,0,0,.,6.21,0.00,0.00
15min,AgWx,beryljct,423,21JAN2021:03:45:00,19.3,12.67,15.5,15.3,17.9,19.7,15.3,92,94,89,0.270,15.9,18.2,12.7,2.192,1.6,277,28,3.6,-0.00011,-0.00014,31.6,34.1,8,0,0,.,6.21,0.00,0.00
15min,AgWx,beryljct,423,21JAN2021:04:00:00,19.0,12.64,20.0,17.8,18.4,20.5,15.3,92,95,89,0.303,16.6,19.2,12.6,0,1.0,316,4.8,2.5,-0.00013,-0.00017,31.5,34.1,9,0,0,.,6.21,0.00,0.00
15min,AgWx,beryljct,423,21JAN2021:04:15:00,18.9,12.64,19.0,20.1,20.0,22.6,17.1,94,96,90,0.345,18.4,21.5,14.6,0.702,0.9,228,8.2,2.3,-0.00014,-0.00019,31.3,34.0,8,0,0,.,6.21,0.00,0.00
15min,AgWx,beryljct,423,21JAN2021:04:30:00,18.9,12.64,18.1,17.8,18.3,19.9,17.0,93,95,91,0.314,16.5,18.5,14.9,0,0.3,225,8.9,1.2,-0.00016,-0.00024,31.2,34.0,9,0,0,.,6.21,0.00,0.00
15min,AgWx,beryljct,423,21JAN2021:04:45:00,18.6,12.63,14.3,14.6,16.8,18.5,14.6,92,93,90,0.264,14.8,16.9,12.2,3.727,0.7,171,20,3.7,-0.00014,-0.00020,31.1,33.9,8,0,0,.,6.21,0.00,0.00
15min,AgWx,beryljct,423,21JAN2021:05:00:00,18.0,12.62,15.8,15.0,14.7,15.4,14.1,90,91,89,0.272,12.4,13.3,11.6,2.696,1.7,168,9.5,3.7,-0.00009,-0.00012,31.0,33.9,9,0,0,.,6.21,0.00,0.00
15min,AgWx,beryljct,423,21JAN2021:05:15:00,17.6,12.62,16.3,15.8,14.9,15.9,13.9,91,92,90,0.285,12.8,14.0,11.4,1.776,2.2,190,9.7,3.1,-0.00008,-0.00010,30.8,33.9,9,0,0,.,6.22,0.00,0.00
15min,AgWx,beryljct,423,21JAN2021:05:30:00,17.4,12.59,19.1,18.1,16.3,18.1,15.1,93,95,91,0.323,14.5,16.8,12.9,1.907,1.8,193,4.5,3.4,-0.00010,-0.00012,30.7,33.9,9,0,0,.,6.22,0.00,0.00
15min,AgWx,beryljct,423,21JAN2021:05:45:00,17.5,12.6,17.2,17.3,18.7,20.5,17.3,95,96,93,0.308,17.5,19.5,15.6,2.214,1.6,190,6.0,2.4,-0.00011,-0.00015,30.6,33.8,9,0,0,.,6.21,0.00,0.00
15min,AgWx,beryljct,423,21JAN2021:06:00:00,17.7,12.58,23.0,21.5,19.2,21.5,16.3,95,97,91,0.380,18.0,20.6,14.2,1.578,1.0,180,19,2.9,-0.00013,-0.00019,30.4,33.8,8,0,0,.,6.22,0.00,0.00
15min,AgWx,beryljct,423,21JAN2021:06:15:00,18.3,12.58,17.2,16.4,17.7,22.7,15.6,93,97,91,0.295,16.1,22.0,13.5,3.42,2.4,324,54,4.2,-0.00009,-0.00011,30.3,33.8,9,0,0,.,6.22,0.00,0.00
15min,AgWx,beryljct,423,21JAN2021:06:30:00,18.9,12.56,19.9,19.3,17.9,19.4,16.3,94,95,93,0.343,16.6,18.2,14.6,2.543,3.6,328,8.1,5.1,-0.00007,-0.00008,30.2,33.7,8,0,0,.,6.21,0.00,0.00
15min,AgWx,beryljct,423,21JAN2021:06:45:00,20.0,12.57,21.4,20.8,20.1,20.8,19.3,95,95,95,0.364,18.9,19.6,18.1,1.206,1.5,340,0.9,3.3,-0.00012,-0.00016,30.1,33.6,8,0,0,.,6.21,0.00,0.00
15min,AgWx,beryljct,423,21JAN2021:07:00:00,20.6,12.55,20.6,20.4,21.0,21.4,20.4,94,95,93,0.351,19.6,20.0,18.7,4.165,1.6,133,61,4.7,0.00002,0.00003,30.0,33.6,8,0,0,.,6.21,0.00,0.00
15min,AgWx,beryljct,423,21JAN2021:07:15:00,20.8,12.54,20.0,19.5,20.2,20.8,19.4,93,94,93,0.338,18.6,19.3,17.7,5.941,4.7,153,11,6.2,0.00004,0.00006,29.9,33.6,8,0,0,.,6.21,0.00,0.00
15min,AgWx,beryljct,423,21JAN2021:07:30:00,20.6,12.54,18.5,18.5,19.2,19.5,18.5,93,94,92,0.322,17.5,18.0,16.7,3.266,4.4,141,6.2,6.2,0.00004,0.00006,29.8,33.6,8,0,0,.,6.21,0.00,0.00
15min,AgWx,beryljct,423,21JAN2021:07:45:00,20.2,12.53,20.8,20.4,19.4,20.4,18.1,93,95,92,0.351,17.8,18.8,16.2,1.491,2.5,144,21,5.3,0.00003,0.00005,29.7,33.5,8,2,0,.,6.21,0.00,0.00
15min,AgWx,beryljct,423,21JAN2021:08:00:00,19.8,12.55,18.5,16.9,19.3,20.5,16.7,92,93,89,0.294,17.3,18.7,14.2,1.469,1.3,178,64,6.3,0.00004,0.00005,29.6,33.5,8,8,0,.,6.22,0.00,0.00
15min,AgWx,beryljct,423,21JAN2021:08:15:00,19.2,12.6,15.6,15.1,15.6,17.2,15.0,91,92,91,0.276,13.6,15.1,13.0,3.529,2.7,312,7.5,3.6,0.00007,0.00009,29.5,33.4,9,16,0,.,6.22,0.00,0.00
15min,AgWx,beryljct,423,21JAN2021:08:30:00,19.0,13.45,17.8,17.2,15.8,17.2,15.1,92,92,92,0.302,13.9,15.3,13.1,0.877,1.4,319,1.4,3.7,0.00021,0.00023,29.4,33.4,8,86,0,.,6.21,0.00,0.00
15min,AgWx,beryljct,423,21JAN2021:08:45:00,20.0,13.66,20.1,19.5,18.7,19.5,17.3,91,92,91,0.329,16.5,17.2,15.2,1.732,0.9,326,1.8,1.9,0.00027,0.00030,29.3,33.3,8,95,0,.,6.22,0.00,0.00
15min,AgWx,beryljct,423,21JAN2021:09:00:00,21.2,13.73,21.8,21.0,20.3,21.0,19.6,91,92,90,0.351,18.0,18.7,17.3,0.723,0.9,320,8.3,2.0,0.00028,0.00031,29.2,33.3,8,84,0,.,6.21,0.00,0.00
15min,AgWx,beryljct,423,21JAN2021:09:15:00,22.5,14.94,23.2,22.3,21.5,22.3,21.0,91,92,90,0.372,19.2,20.0,18.7,0,1.2,35,33,2.7,0.00043,0.00046,29.2,33.3,8,147,0,.,6.21,0.00,0.00
15min,AgWx,beryljct,423,21JAN2021:09:30:00,25.0,14.89,25.5,25.2,24.2,25.7,22.3,89,91,86,0.398,21.4,22.6,20.0,2.543,0.5,127,19,2.7,0.00072,0.00077,29.1,33.2,8,243,0,.,6.21,0.00,0.00
15min,AgWx,beryljct,423,21JAN2021:09:45:00,28.3,14.84,29.4,30.4,27.8,30.4,25.2,83,88,77,0.442,23.2,24.1,21.7,0.877,1.3,176,6.3,2.8,0.00094,0.00102,29.0,33.2,9,298,0,.,6.21,0.00,0.00
15min,AgWx,beryljct,423,21JAN2021:10:00:00,32.0,14.75,32.0,32.1,30.6,32.2,29.3,78,80,75,0.469,24.5,25.7,22.8,1.447,1.1,137,22,2.1,0.00117,0.00127,29.0,33.1,9,345,0,.,6.21,0.00,0.00
15min,AgWx,beryljct,423,21JAN2021:10:15:00,35.1,14.69,34.3,33.8,32.9,34.1,32.0,75,77,74,0.485,25.9,27.0,25.0,3.99,3.1,137,18,4.7,0.00129,0.00146,29.0,33.1,8,370,0,.,6.20,0.00,0.00
15min,AgWx,beryljct,423,21JAN2021:10:30:00,37.3,14.74,35.7,35.7,34.9,36.1,33.8,73,75,70,0.499,27.0,28.1,26.3,3.157,3.6,141,13,4.7,0.00145,0.00165,29.0,33.0,9,399,0,.,6.21,0.00,0.00
15min,AgWx,beryljct,423,21JAN2021:10:45:00,39.4,14.28,37.9,38.0,37.2,38.0,35.7,69,72,67,0.521,27.9,28.6,27.0,2.631,2.6,124,17,4.3,0.00167,0.00188,29.0,33.0,9,431,0,.,6.21,0.00,0.00
15min,AgWx,beryljct,423,21JAN2021:11:00:00,41.6,14.18,40.7,39.9,39.1,40.2,37.7,65,68,63,0.533,28.5,29.3,27.7,1.995,2.3,108,15,4.0,0.00187,0.00209,29.1,32.9,8,460,0,.,6.20,0.00,0.00
15min,AgWx,beryljct,423,21JAN2021:11:15:00,43.8,14.24,43.6,42.1,41.4,42.3,40.0,61,64,59,0.541,29.1,29.5,28.6,0.986,2.6,108,19,4.1,0.00206,0.00233,29.2,32.9,8,486,0,.,6.20,0.00,0.00
15min,AgWx,beryljct,423,21JAN2021:11:30:00,46.1,14.1,44.8,44.6,43.6,44.9,42.3,57,60,55,0.562,29.5,30.4,28.9,1.228,2.3,118,31,4.4,0.00225,0.00254,29.4,32.9,9,508,0,.,6.20,0.00,0.00
15min,AgWx,beryljct,423,21JAN2021:11:45:00,48.3,14.18,46.2,46.9,46.2,48.2,44.6,53,56,50,0.569,30.1,31.2,29.5,1.82,2.2,124,36,5.0,0.00250,0.00281,29.5,32.8,8,542,0,.,6.20,0.00,0.00
15min,AgWx,beryljct,423,21JAN2021:12:00:00,50.4,14.01,51.3,49.8,47.5,49.8,46.4,52,53,49,0.601,30.6,32.0,29.9,3.003,4.3,347,31,7.3,0.00266,0.00314,29.6,32.8,9,563,0,.,6.20,0.00,0.00
15min,AgWx,beryljct,423,21JAN2021:12:15:00,52.1,13.99,49.7,49.4,49.2,50.5,48.6,49,50,48,0.587,31.1,31.9,30.6,1.929,2.3,4.4,72,5.8,0.00192,0.00223,29.8,32.7,8,358,0,.,6.20,0.00,0.00
15min,AgWx,beryljct,423,21JAN2021:12:30:00,53.1,14.01,50.8,50.9,50.2,51.5,49.1,48,49,46,0.593,31.3,31.9,30.9,9.62,3.8,238,49,9.9,0.00231,0.00277,29.9,32.7,8,441,0,.,6.19,0.00,0.00
15min,AgWx,beryljct,423,21JAN2021:12:45:00,53.8,14.03,52.1,52.1,52.2,53.7,50.7,44,48,42,0.572,31.2,32.3,30.2,10.15,9.6,247,13,15.2,0.00322,0.00414,30.1,32.7,8,597,0,.,6.19,0.00,0.00
15min,AgWx,beryljct,423,21JAN2021:13:00:00,54.9,13.96,51.4,51.9,53.1,54.3,51.9,43,44,41,0.564,30.9,31.6,30.0,13.33,10.5,238,26,16.9,0.00362,0.00465,30.2,32.7,8,652,0,.,6.19,0.00,0.00
15min,AgWx,beryljct,423,21JAN2021:13:15:00,54.5,13.96,50.4,50.7,51.2,51.9,50.7,43,44,43,0.544,29.6,30.2,29.1,11.82,10.8,254,12,15.2,0.00206,0.00298,30.5,32.7,8,246,0,.,6.19,0.00,0.00
15min,AgWx,beryljct,423,21JAN2021:13:30:00,54.0,14.01,53.7,53.9,52.0,54.2,50.0,43,46,40,0.584,30.0,31.2,29.1,13.37,9.2,250,16,14.5,0.00280,0.00369,30.8,32.6,8,505,0,.,6.18,0.00,0.00
15min,AgWx,beryljct,423,21JAN2021:13:45:00,55.3,13.9,53.6,53.5,53.7,54.5,52.7,41,43,40,0.576,30.7,31.6,30.0,13.83,10.7,259,18,17.7,0.00367,0.00475,31.3,32.6,8,654,0,.,6.18,0.00,0.00
15min,AgWx,beryljct,423,21JAN2021:14:00:00,55.9,13.87,52.3,52.8,52.8,53.6,52.1,42,43,41,0.563,30.5,31.2,29.9,9.95,11.2,274,11,15.9,0.00331,0.00437,31.8,32.6,8,588,0,.,6.18,0.00,0.00
15min,AgWx,beryljct,423,21JAN2021:14:15:00,55.7,13.95,50.9,50.7,52.1,53.7,50.6,42,45,40,0.563,29.8,30.6,28.6,11.22,11.2,273,9.5,14.9,0.00210,0.00307,32.4,32.6,9,260,0,.,6.18,0.00,0.00
15min,AgWx,beryljct,423,21JAN2021:14:30:00,54.8,13.93,52.6,52.4,52.0,53.4,50.6,43,45,41,0.577,30.2,30.8,29.7,9.69,9.9,266,14,14.2,0.00214,0.00304,33.0,32.6,8,337,0,.,6.18,0.00,0.00
15min,AgWx,beryljct,423,21JAN2021:14:45:00,55.1,13.91,54.6,53.8,53.0,53.8,52.2,42,43,41,0.579,30.5,31.1,30.0,10.41,8.7,259,12,11.9,0.00309,0.00400,33.6,32.6,8,554,0,.,6.18,0.00,0.00
15min,AgWx,beryljct,423,21JAN2021:15:00:00,56.2,13.86,54.6,53.9,53.8,54.5,53.2,41,42,40,0.578,30.6,31.1,30.0,9.34,11.0,245,15,15.0,0.00311,0.00418,34.1,32.7,8,519,0,.,6.17,0.00,0.00
15min,AgWx,beryljct,423,21JAN2021:15:15:00,56.0,13.88,54.1,53.5,52.4,54.1,51.5,42,43,40,0.581,30.1,30.9,29.7,11.09,9.7,222,12,13.2,0.00173,0.00260,34.6,32.7,8,251,0,.,6.17,0.00,0.00
15min,AgWx,beryljct,423,21JAN2021:15:30:00,55.4,14.02,52.3,51.4,52.2,54.1,51.1,43,45,40,0.575,30.3,31.0,29.8,6.883,9.2,233,13,14.8,0.00141,0.00223,35.1,32.7,8,168,0,.,6.17,0.00,0.00
15min,AgWx,beryljct,423,21JAN2021:15:45:00,54.8,13.92,54.2,53.6,52.8,53.9,51.5,42,45,41,0.573,30.5,31.1,29.9,9.08,8.5,217,19,13.0,0.00183,0.00265,35.5,32.8,8,288,0,.,6.17,0.00,0.00
15min,AgWx,beryljct,423,21JAN2021:16:00:00,55.7,13.84,52.4,52.7,53.8,54.5,52.7,40,42,39,0.568,30.3,30.9,29.8,12.54,11.2,210,10,15.1,0.00251,0.00357,36.0,32.9,9,381,0,.,6.17,0.00,0.00
15min,AgWx,beryljct,423,21JAN2021:16:15:00,55.0,13.93,52.0,51.4,51.6,52.6,51.1,44,44,42,0.574,30.2,30.5,30.0,13.18,9.6,211,9.5,14.2,0.00104,0.00184,36.3,32.9,8,109,0,.,6.17,0.00,0.00
15min,AgWx,beryljct,423,21JAN2021:16:30:00,54.4,13.34,51.6,51.7,52.1,52.5,51.4,43,44,42,0.563,30.3,30.6,29.9,7.87,9.9,210,8.6,13.3,0.00161,0.00247,36.6,33.0,8,221,0,.,6.17,0.00,0.00
15min,AgWx,beryljct,423,21JAN2021:16:45:00,53.7,14.01,51.1,51.2,51.2,51.6,50.8,44,44,43,0.561,29.9,30.1,29.7,8.29,9.5,197,8.2,13.3,0.00109,0.00188,36.9,33.1,8,123,0,.,6.17,0.00,0.00
15min,AgWx,beryljct,423,21JAN2021:17:00:00,53.3,13.92,51.2,51.1,51.0,51.2,50.8,45,45,44,0.578,30.3,30.6,29.9,8.94,8.2,177,9.8,11.2,0.00060,0.00074,37.2,33.2,8,162,0,.,6.17,0.00,0.00
15min,AgWx,beryljct,423,21JAN2021:17:15:00,53.3,13.98,50.1,49.9,50.6,51.1,49.9,46,47,45,0.572,30.6,30.7,30.4,9.4,10.7,178,9.8,14.5,0.00059,0.00071,37.4,33.3,9,127,0,.,6.17,0.00,0.00
15min,AgWx,beryljct,423,21JAN2021:17:30:00,52.5,13.16,48.3,47.9,49.0,49.9,47.9,48,50,47,0.568,30.3,30.5,30.1,10.98,9.1,195,6.3,12.3,0.00043,0.00053,37.5,33.4,8,60,0,.,6.17,0.00,0.00
15min,AgWx,beryljct,423,21JAN2021:17:45:00,50.6,13.05,46.1,46.4,47.1,47.9,46.4,52,53,50,0.566,30.3,30.6,30.0,8.57,9.2,204,6.6,12.3,0.00032,0.00040,37.6,33.5,8,13,0,.,6.18,0.00,0.00
15min,AgWx,beryljct,423,21JAN2021:18:00:00,48.5,13.02,44.2,44.3,45.2,46.3,44.3,55,56,53,0.555,29.9,30.2,29.6,6.971,7.5,209,4.9,9.8,0.00022,0.00029,37.7,33.6,8,4,0,.,6.18,0.00,0.00
15min,AgWx,beryljct,423,21JAN2021:18:15:00,46.6,13,43.2,43.3,43.7,44.3,43.2,57,59,56,0.554,29.6,29.9,29.3,6.62,7.1,212,4.6,8.7,0.00017,0.00023,37.7,33.8,8,0,0,.,6.18,0.00,0.00
15min,AgWx,beryljct,423,21JAN2021:18:30:00,45.0,12.98,43.2,42.9,43.0,43.3,42.8,59,60,58,0.557,29.7,30.0,29.5,6.949,7.3,207,4.5,8.6,0.00017,0.00022,37.7,33.9,9,0,0,.,6.18,0.00,0.00
15min,AgWx,beryljct,423,21JAN2021:18:45:00,43.7,12.96,41.1,40.9,41.9,42.9,40.8,61,62,59,0.543,29.3,29.8,28.7,6.642,6.5,198,11,7.6,0.00012,0.00017,37.7,34.0,8,0,0,.,6.18,0.00,0.00
15min,AgWx,beryljct,423,21JAN2021:19:00:00,42.5,12.95,40.7,40.8,41.1,41.5,40.8,62,63,62,0.544,29.3,29.6,28.9,6.84,7.4,189,4.3,8.5,0.00014,0.00018,37.6,34.1,9,0,0,.,6.19,0.00,0.00
15min,AgWx,beryljct,423,21JAN2021:19:15:00,41.5,12.94,38.8,39.0,39.9,40.8,39.0,64,66,63,0.529,28.8,29.4,28.5,6.708,7.1,187,5.0,8.3,0.00011,0.00015,37.5,34.2,9,0,0,.,6.18,0.00,0.00
15min,AgWx,beryljct,423,21JAN2021:19:30:00,40.3,12.92,37.7,37.6,38.4,39.0,37.6,67,68,66,0.518,28.3,28.8,27.9,6.862,6.8,189,4.4,7.7,0.00008,0.00012,37.4,34.3,9,0,0,.,6.19,0.00,0.00
15min,AgWx,beryljct,423,21JAN2021:19:45:00,39.4,12.9,38.6,38.5,38.1,38.7,37.2,68,70,68,0.534,28.6,29.2,27.7,6.73,6.9,200,5.1,7.9,0.00008,0.00011,37.2,34.4,8,0,0,.,6.19,0.00,0.00
15min,AgWx,beryljct,423,21JAN2021:20:00:00,39.1,12.89,40.3,39.9,39.2,39.9,38.2,67,69,66,0.555,29.3,29.7,28.5,8.72,7.8,202,4.5,9.3,0.00010,0.00014,37.1,34.5,9,0,0,.,6.19,0.00,0.00
15min,AgWx,beryljct,423,21JAN2021:20:15:00,39.1,12.9,39.6,38.9,39.4,40.2,38.9,67,68,65,0.545,29.3,29.7,29.0,7.892,8.1,194,6.3,9.7,0.00012,0.00015,36.9,34.6,8,0,0,.,6.19,0.00,0.00
15min,AgWx,beryljct,423,21JAN2021:20:30:00,38.9,12.89,38.9,38.1,38.3,39.0,37.5,69,70,68,0.548,29.0,29.6,28.3,6.905,6.9,192,7.2,8.2,0.00008,0.00011,36.8,34.7,9,0,0,.,6.19,0.00,0.00
15min,AgWx,beryljct,423,21JAN2021:20:45:00,38.4,12.89,38.5,37.5,37.8,38.9,37.2,70,71,68,0.538,28.8,29.8,28.3,8.24,7.0,185,7.4,8.6,0.00007,0.00010,36.6,34.7,8,0,0,.,6.19,0.00,0.00
15min,AgWx,beryljct,423,21JAN2021:21:00:00,38.0,12.88,37.4,37.5,37.7,38.0,37.3,70,71,69,0.537,28.9,29.4,28.5,7.059,7.2,183,6.3,8.5,0.00007,0.00010,36.4,34.8,9,0,0,.,6.19,0.00,0.00
15min,AgWx,beryljct,423,21JAN2021:21:15:00,37.7,12.87,37.2,36.8,37.0,37.7,36.5,71,72,70,0.530,28.7,29.1,28.0,9.6,7.6,180,8.8,9.6,0.00007,0.00010,36.3,34.8,9,0,0,.,6.20,0.00,0.00
15min,AgWx,beryljct,423,21JAN2021:21:30:00,37.4,12.87,38.8,38.2,37.2,38.3,36.5,72,73,71,0.554,29.0,29.8,28.3,9.89,9.4,179,6.8,10.9,0.00009,0.00012,36.1,34.9,9,0,0,.,6.20,0.00,0.00
15min,AgWx,beryljct,423,21JAN2021:21:45:00,37.7,12.86,38.3,38.4,38.6,39.0,38.3,70,71,69,0.551,29.7,30.0,29.3,8.97,9.6,200,7.6,11.4,0.00011,0.00015,35.9,35.0,8,0,0,.,6.20,0.00,0.00
15min,AgWx,beryljct,423,21JAN2021:22:00:00,37.8,12.85,36.9,36.3,37.3,38.3,36.0,72,75,70,0.541,29.0,29.5,28.2,7.695,7.7,194,4.9,9.5,0.00007,0.00010,35.8,35.0,8,0,0,.,6.20,0.00,0.00
15min,AgWx,beryljct,423,21JAN2021:22:15:00,37.7,12.84,37.7,37.5,37.3,37.7,36.3,73,77,72,0.550,29.5,31.2,29.0,6.774,7.2,199,3.7,8.4,0.00005,0.00008,35.7,35.0,9,0,0,.,6.19,0.00,0.00
15min,AgWx,beryljct,423,21JAN2021:22:30:00,37.4,12.82,32.8,35.0,36.7,37.5,35.0,73,76,72,0.513,29.0,29.6,27.7,4.034,6.2,195,7.5,7.7,0.00003,0.00005,35.5,35.0,8,0,0,.,6.20,0.00,0.00
15min,AgWx,beryljct,423,21JAN2021:22:45:00,36.2,12.82,29.9,31.0,31.2,34.6,29.9,79,83,71,0.467,25.5,28.1,23.5,3.88,4.9,169,11,5.9,-0.00002,-0.00002,35.4,35.1,8,0,0,.,6.20,0.00,0.00
15min,AgWx,beryljct,423,21JAN2021:23:00:00,34.6,12.83,30.5,30.3,30.6,32.2,29.1,82,85,77,0.478,25.6,27.1,23.5,5.349,4.2,297,74,6.8,-0.00005,-0.00005,35.3,35.1,8,0,0,.,6.21,0.00,0.00
15min,AgWx,beryljct,423,21JAN2021:23:15:00,33.4,12.81,31.4,31.2,30.6,31.6,30.0,82,84,80,0.481,25.8,27.0,24.9,3.595,3.0,9.2,24,5.1,-0.00008,-0.00010,35.2,35.1,9,0,0,.,6.20,0.00,0.00
15min,AgWx,beryljct,423,21JAN2021:23:30:00,32.4,12.81,29.0,28.8,29.4,31.1,28.6,83,86,79,0.459,24.9,26.2,23.6,0,0.7,356,67,3.7,-0.00018,-0.00025,35.0,35.1,8,0,0,.,6.21,0.00,0.00
15min,AgWx,beryljct,423,21JAN2021:23:45:00,31.3,12.8,30.8,29.9,28.9,30.7,27.9,86,88,83,0.478,25.3,27.5,24.0,1.666,0.7,274,24,3.8,-0.00018,-0.00026,34.9,35.1,8,0,0,.,6.21,0.00,0.00
15min,AgWx,bigpiney,439,21JAN2021:00:00:00,18.1,12.58,20.4,20.1,20.1,20.9,19.1,57,63,54,0.208,7.4,8.9,6.6,2.828,1.6,185,18,3.5,-0.00008,-0.00009,27.4,29.7,9,0,0,0.0,0.01,0.00,0.00
15min,AgWx,bigpiney,439,21JAN2021:00:15:00,18.6,12.57,19.8,20.5,20.6,21.2,19.9,52,56,48,0.197,5.6,6.9,4.7,3.793,2.1,198,23,4.1,-0.00004,-0.00004,27.4,29.6,9,0,0,0.0,0.01,0.00,0.00
15min,AgWx,bigpiney,439,21JAN2021:00:30:00,18.7,12.56,21.8,21.1,20.0,21.1,19.0,54,57,48,0.188,6.0,6.6,4.6,1.008,2.3,191,21,4.1,-0.00003,-0.00003,27.4,29.6,9,0,0,0.0,0.01,0.00,0.00
15min,AgWx,bigpiney,439,21JAN2021:00:45:00,18.6,12.55,22.2,21.1,20.5,21.8,18.7,49,54,45,0.179,4.3,5.5,3.1,1.381,2.5,225,30,4.5,-0.00002,-0.00001,27.3,29.7,9,0,0,0.0,0.01,0.00,0.00
15min,AgWx,bigpiney,439,21JAN2021:01:00:00,18.2,12.53,18.7,17.6,17.6,21.5,14.3,59,68,45,0.203,5.4,7.4,2.5,1.184,2.4,291,66,5.1,-0.00004,-0.00004,27.3,29.7,9,0,0,0.0,0.01,0.00,0.00
15min,AgWx,bigpiney,439,21JAN2021:01:15:00,17.5,12.53,18.6,17.6,17.9,19.0,17.1,55,60,53,0.182,4.6,6.4,3.3,2.521,2.3,239,4.6,4.5,-0.00004,-0.00004,27.3,29.7,9,0,0,0.0,0.01,0.00,0.00
15min,AgWx,bigpiney,439,21JAN2021:01:30:00,16.6,12.51,15.7,17.9,18.1,18.9,15.7,52,54,50,0.181,3.6,4.6,1.0,2.762,1.2,316,47,3.5,-0.00009,-0.00011,27.3,29.7,9,0,0,0.0,0.01,0.00,0.00
15min,AgWx,bigpiney,439,21JAN2021:01:45:00,15.8,12.51,16.2,13.1,15.1,17.7,11.3,60,65,53,0.178,3.7,4.8,0.6,3.31,1.7,255,28,5.5,-0.00006,-0.00007,27.3,29.6,9,0,0,0.0,0.01,0.00,0.00
15min,AgWx,bigpiney,439,21JAN2021:02:00:00,14.7,12.5,15.0,15.4,14.2,16.6,10.6,63,68,58,0.176,3.8,5.4,1.0,2.696,1.1,256,19,3.2,-0.00009,-0.00012,27.3,29.7,9,0,0,0.0,0.01,0.00,0.00
15min,AgWx,bigpiney,439,21JAN2021:02:15:00,14.0,12.49,12.0,11.9,13.7,16.7,11.5,64,71,58,0.185,3.8,5.5,1.7,1.359,3.3,235,9.1,4.2,-0.00002,-0.00001,27.2,29.6,9,0,0,0.0,0.01,0.00,0.00
15min,AgWx,bigpiney,439,21JAN2021:02:30:00,13.6,12.47,12.8,12.0,11.2,12.1,10.4,74,75,71,0.191,4.4,5.2,3.4,3.179,1.7,292,60,4.4,-0.00007,-0.00009,27.2,29.7,9,0,0,0.0,0.01,0.00,0.00
15min,AgWx,bigpiney,439,21JAN2021:02:45:00,13.0,12.46,8.8,15.4,11.2,15.4,9.6,72,74,65,0.197,3.8,6.2,2.3,0.307,3.1,243,26,5.8,-0.00003,-0.00003,27.2,29.6,9,0,0,0.0,0.01,0.00,0.00
15min,AgWx,bigpiney,439,21JAN2021:03:00:00,12.5,12.45,10.8,10.2,10.4,14.8,9.5,70,74,62,0.178,2.7,4.8,0.8,1.622,1.5,266,39,3.7,-0.00007,-0.00009,27.1,29.7,9,0,0,0.0,0.01,0.00,0.00
15min,AgWx,bigpiney,439,21JAN2021:03:15:00,12.1,12.45,10.1,9.8,11.5,13.0,9.8,70,74,67,0.175,3.7,4.6,2.6,1.052,1.5,235,15,3.1,-0.00007,-0.00009,27.1,29.6,9,0,0,0.0,0.01,0.00,0.00
15min,AgWx,bigpiney,439,21JAN2021:03:30:00,12.1,12.44,12.3,11.1,11.2,12.1,9.8,73,75,70,0.185,4.2,5.0,3.2,3.946,1.9,248,34,4.3,-0.00006,-0.00008,27.1,29.6,9,0,0,0.0,0.01,0.00,0.00
15min,AgWx,bigpiney,439,21JAN2021:03:45:00,12.2,12.43,13.5,12.8,12.0,12.8,11.1,73,75,70,0.202,5.0,6.2,4.1,0.482,3.5,236,13,5.6,-0.00003,-0.00002,27.0,29.7,9,0,0,0.0,0.01,0.00,0.00
15min,AgWx,bigpiney,439,21JAN2021:04:00:00,12.7,12.43,13.1,12.9,13.1,13.5,12.8,74,75,72,0.198,6.4,6.8,5.7,3.99,3.3,221,15,5.7,-0.00003,-0.00003,27.0,29.7,9,0,0,0.0,0.01,0.00,0.00
15min,AgWx,bigpiney,439,21JAN2021:04:15:00,12.8,12.41,17.1,16.4,15.1,16.8,12.8,66,73,60,0.196,5.6,6.3,4.7,3.003,2.6,256,23,4.9,-0.00004,-0.00004,27.0,29.6,9,0,0,0.0,0.01,0.00,0.00
15min,AgWx,bigpiney,439,21JAN2021:04:30:00,12.5,12.41,12.2,9.8,12.2,16.9,7.3,66,73,60,0.171,2.9,5.7,-2.1,2.938,2.8,245,37,6.7,-0.00003,-0.00003,27.0,29.7,9,0,0,0.0,0.01,0.00,0.00
15min,AgWx,bigpiney,439,21JAN2021:04:45:00,11.5,12.4,6.1,5.8,7.6,12.1,5.8,74,78,67,0.154,1.2,4.6,-0.5,5.02,4.6,217,11,7.7,-0.00001,-0.00001,26.9,29.7,9,0,0,0.0,0.01,0.00,0.00
15min,AgWx,bigpiney,439,21JAN2021:05:00:00,10.4,12.4,8.3,8.1,7.7,10.3,5.2,77,81,72,0.163,1.9,4.2,-0.1,5.02,3.9,237,8.4,5.3,-0.00002,-0.00002,26.9,29.6,9,0,0,0.0,0.01,0.00,0.00
15min,AgWx,bigpiney,439,21JAN2021:05:15:00,9.6,12.39,6.7,5.5,6.4,8.0,5.2,77,79,74,0.155,0.6,1.8,-1.0,4.056,4.3,226,12,6.5,-0.00002,-0.00001,26.8,29.6,9,0,0,0.0,0.01,0.00,0.00
15min,AgWx,bigpiney,439,21JAN2021:05:30:00,8.9,12.39,7.4,6.3,6.6,6.8,5.6,77,79,75,0.153,0.9,1.5,0.0,2.806,3.7,237,20,4.8,-0.00002,-0.00002,26.8,29.6,9,0,0,0.0,0.01,0.00,0.00
15min,AgWx,bigpiney,439,21JAN2021:05:45:00,8.4,12.38,10.8,9.0,8.4,9.8,6.0,74,78,70,0.173,1.7,3.0,-1.0,1.644,1.8,262,28,3.1,-0.00006,-0.00007,26.8,29.5,9,0,0,0.0,0.01,0.00,0.00
15min,AgWx,bigpiney,439,21JAN2021:06:00:00,8.0,12.38,3.8,5.2,9.5,10.8,5.2,70,75,67,0.138,1.8,3.1,-2.0,4.472,2.0,165,22,4.6,-0.00006,-0.00006,26.7,29.5,9,0,0,0.0,0.01,0.00,0.00
15min,AgWx,bigpiney,439,21JAN2021:06:15:00,7.6,12.38,4.9,4.9,5.2,7.8,3.5,76,81,71,0.145,-0.7,2.6,-2.5,4.209,3.8,218,13,5.1,-0.00002,-0.00002,26.7,29.5,9,0,0,0.0,0.01,0.00,0.00
15min,AgWx,bigpiney,439,21JAN2021:06:30:00,7.1,12.37,5.8,4.6,4.2,5.7,2.8,78,82,76,0.152,-1.1,0.3,-2.3,3.727,4.4,218,6.1,6.1,-0.00002,-0.00001,26.6,29.5,9,0,0,0.0,0.01,0.00,0.00
15min,AgWx,bigpiney,439,21JAN2021:06:45:00,6.4,12.38,7.4,6.5,6.2,9.0,4.7,78,81,73,0.151,0.8,3.4,-0.6,3.88,2.2,295,47,4.3,-0.00005,-0.00006,26.6,29.6,9,0,0,0.0,0.01,0.00,0.00
15min,AgWx,bigpiney,439,21JAN2021:07:00:00,6.1,12.38,10.1,9.5,8.1,9.5,6.6,76,78,74,0.174,2.1,3.1,0.0,3.836,4.0,310,13,4.7,-0.00002,-0.00002,26.5,29.5,9,0,0,0.0,0.01,0.00,0.00
15min,AgWx,bigpiney,439,21JAN2021:07:15:00,6.1,12.37,8.7,7.9,8.6,9.6,7.5,75,76,73,0.166,2.2,2.9,1.4,2.148,4.6,301,15,6.2,-0.00001,-0.00001,26.5,29.5,9,0,0,0.0,0.01,0.00,0.00
15min,AgWx,bigpiney,439,21JAN2021:07:30:00,6.1,12.37,7.4,7.3,6.5,8.1,5.0,77,80,74,0.169,0.8,2.8,-0.7,3.617,3.6,221,30,5.7,-0.00003,-0.00003,26.4,29.5,9,0,0,0.0,0.01,0.00,0.00
15min,AgWx,bigpiney,439,21JAN2021:07:45:00,5.9,12.39,5.8,5.9,5.4,7.2,4.7,77,79,75,0.154,-0.2,2.2,-1.3,5.678,6.0,220,5.9,8.4,-0.00000,0.00000,26.4,29.5,9,2,0,0.0,0.01,0.00,0.00
15min,AgWx,bigpiney,439,21JAN2021:08:00:00,5.9,15.02,7.6,6.5,5.3,6.5,4.7,78,80,77,0.163,0.0,1.5,-0.7,5.415,5.4,219,4.7,6.8,-0.00006,-0.00002,26.3,29.5,9,12,0,0.0,0.01,0.00,0.00
15min,AgWx,bigpiney,439,21JAN2021:08:15:00,6.4,13.69,8.8,8.1,7.5,8.2,6.6,77,79,75,0.168,1.7,2.5,0.3,0.066,2.2,274,64,5.6,-0.00010,-0.00008,26.3,29.4,9,27,0,0.0,0.01,0.00,0.00
15min,AgWx,bigpiney,439,21JAN2021:08:30:00,7.4,13.75,10.9,10.3,9.3,10.5,8.1,78,79,76,0.191,3.7,5.2,2.1,1.622,1.9,228,18,5.4,0.00004,0.00007,26.2,29.4,9,26,0,0.0,0.01,0.00,0.00
15min,AgWx,bigpiney,439,21JAN2021:08:45:00,8.7,15,11.8,11.0,10.3,11.0,9.9,78,79,76,0.189,4.9,5.4,4.4,2.192,1.5,294,20,3.0,0.00007,0.00010,26.2,29.4,9,48,0,0.0,0.01,0.00,0.00